Home   Weather   Santiago de Cuba   Past weeks
Flag for Cuba

Past Weather in Santiago de Cuba, Cuba — Yesterday and Last 2 Weeks

Now
75 °F

Light rain. Passing clouds.


Feels Like: 73 °F
Forecast: 86 / 75 °F
Wind: 8 mph from West

Location: Santiago De Cuba - Oriente

Current Time: Sep 22, 2019 at 6:24:46 am

Latest Report: Sep 22, 2019 at 4:53 am


Visibility: 4 mi

Pressure: 29.92 "Hg

Humidity: 100%

Dew Point: 75 °F

Location of Santiago de CubaLocation

Past Weather in Santiago de Cuba — Graph

°F

Santiago de Cuba Temperature Yesterday

Maximum temperature yesterday: 88 °F (at 2:54 pm)
Minimum temperature yesterday: 75 °F (at 2:51 am)
Average temperature yesterday: 79 °F

High & Low Weather Summary for the Past Weeks

 TemperatureHumidityPressure
High91 °F (Sep 7, 10:51 am)100% (Sep 19, 4:08 am)30.01 "Hg (Sep 19, 4:08 am)
Low72 °F (Sep 19, 4:08 am)44% (Sep 7, 10:51 am)29.74 "Hg (Sep 18, 4:52 pm)
Average81 °F77%29.90 "Hg
* Reported Sep 7 4:51 am — Sep 22 4:53 am, Santiago de Cuba. Weather by CustomWeather, © 2019

Note: Actual official high and low records may vary slightly from our data, if they occured in-between our weather recording intervals... More about our weather records

Advertising

Santiago de Cuba Weather History for the Previous 24 Hours

Scroll right to see more
 ConditionsComfort  
Time TempWeatherWind HumidityBarometerVisibility
4:53 am
Sun, Sep 22
75 °FLight rain. Passing clouds.8 mph100%29.92 "Hg4 mi
4:06 am73 °FScattered showers. Partly cloudy.5 mph100%29.92 "Hg4 mi
2:53 am77 °FPassing clouds.5 mph94%29.92 "Hg5 mi
1:52 am77 °FPassing clouds.5 mph94%29.92 "Hg5 mi
12:52 am77 °FPassing clouds.6 mph94%29.92 "Hg5 mi
11:50 pm
Sat, Sep 21
77 °FPassing clouds.6 mph94%29.95 "Hg5 mi
10:51 pm75 °FPassing clouds.3 mph100%29.95 "Hg5 mi
9:52 pm75 °FPassing clouds.3 mph100%29.92 "Hg5 mi
8:51 pm77 °FPassing clouds.3 mph100%29.89 "Hg5 mi
7:51 pm77 °FPartly cloudy.1 mph100%29.89 "Hg5 mi
6:53 pm79 °FScattered clouds.2 mph94%29.86 "Hg5 mi
5:52 pm77 °FLight rain. Broken clouds.3 mph100%29.86 "Hg5 mi
4:53 pm77 °FLight rain. Broken clouds.2 mph94%29.86 "Hg5 mi
4:17 pm75 °FRain. Broken clouds.2 mph100%29.89 "Hg3 mi
3:54 pm75 °FHeavy rain. Broken clouds.3 mph100%N/A2 mi
3:26 pm77 °FRain. Scattered clouds.8 mph89%29.89 "Hg3 mi
3:13 pm82 °FScattered showers. Scattered clouds.7 mph74%N/A6 mi
2:54 pm88 °FScattered showers. Scattered clouds.10 mph66%29.86 "Hg6 mi
1:53 pm86 °FScattered clouds.9 mph66%29.89 "Hg6 mi
12:53 pm86 °FBroken clouds.9 mph66%29.92 "Hg6 mi
10:54 am86 °FScattered showers. Scattered clouds.8 mph70%29.92 "Hg6 mi
9:51 am84 °FScattered clouds.5 mph70%29.92 "Hg6 mi
8:51 am82 °FScattered clouds.1 mph79%29.89 "Hg6 mi
7:52 am79 °FScattered clouds.3 mph84%29.89 "Hg6 mi
6:51 am75 °FScattered clouds.5 mph89%29.89 "Hg6 mi
Weather by CustomWeather, © 2019

See weather overview